Date String (YYYY-MM-DD hh:mm:ss) UTC,Instrument flags,absolute air pressure of the measurement (hPa),sample flow rate (lpm),inlet stack bypass flow (lpm),air temperature of the measurement (°C),ambient temperature measured by the external sensor (°C),aerosol sample conditioner tube jacket temperature (°C),OPC LED temperature (°C),internal box temperature (°C),relative humidity of the measurement (%),span deviation,mass concentration of particles derived from Lorenz-Mie calculation of OPC scattering (μg/m³),mass concentration of particles derived from Lorenz-Mie calculation of OPC scattering (μg/m³),mass concentration of particles derived from Lorenz-Mie calculation of OPC scattering (μg/m³)
DateTimeUTC,F1_M11,P_M11,Q1_M11,Q2_M11,T1_M11,T2_M11,T3_M11,T4_M11,T5_M11,U1_M11,ZSPAN_M11,X2_M11,X0_M11,X1_M11
2023-08-13 08:00:00,SystemResetWarning,0830.9,5.00,000.00,029.3,026.1,000.0,037.8,030.6,21.7,0000.0,0003.19,0005.27,0002.60
2023-08-13 08:01:00,SystemResetWarning,0830.9,5.00,000.00,029.3,026.5,000.0,037.8,030.7,22.2,0000.0,0003.19,0005.26,0002.60
2023-08-13 08:02:00,SystemResetWarning,0830.9,5.00,000.00,029.3,026.8,000.0,037.8,030.8,21.9,0000.0,0003.18,0005.49,0002.60
2023-08-13 08:03:00,SystemResetWarning,0830.8,5.00,000.00,029.3,027.1,000.0,037.8,030.9,22.0,0000.0,0003.19,0005.73,0002.59
2023-08-13 08:04:00,SystemResetWarning,0830.9,5.00,000.00,029.3,027.4,000.0,037.8,030.9,21.9,0000.0,0003.19,0005.64,0002.59
2023-08-13 08:05:00,SystemResetWarning,0830.8,5.00,000.00,029.3,027.6,000.0,037.8,031.0,21.8,0000.0,0003.17,0005.32,0002.56
2023-08-13 08:06:00,SystemResetWarning,0830.8,5.00,000.00,029.3,027.8,000.0,037.9,031.0,21.8,0000.0,0003.16,0005.21,0002.56
2023-08-13 08:07:00,SystemResetWarning,0830.8,4.99,000.00,029.4,028.0,000.0,037.9,031.1,22.1,0000.0,0003.19,0006.06,0002.56
2023-08-13 08:08:00,SystemResetWarning,0830.8,4.99,000.00,029.4,028.1,000.0,037.9,031.1,22.2,0000.0,0003.22,0006.74,0002.56
2023-08-13 08:09:00,SystemResetWarning,0830.8,5.00,000.00,029.4,028.2,000.0,037.9,031.2,22.3,0000.0,0003.25,0007.42,0002.56
2023-08-13 08:10:00,SystemResetWarning,0830.8,5.00,000.00,029.5,028.3,000.0,037.9,031.2,22.7,0000.0,0003.24,0007.37,0002.54
2023-08-13 08:11:00,SystemResetWarning,0830.8,5.00,000.00,029.5,028.4,000.0,038.0,031.2,22.0,0000.0,0003.21,0007.44,0002.55
2023-08-13 08:12:00,SystemResetWarning,0830.8,4.99,000.00,029.5,027.1,000.0,037.9,031.0,21.9,0000.0,0003.20,0007.88,0002.56
2023-08-13 08:13:00,SystemResetWarning,0830.8,5.01,000.00,029.4,025.7,000.0,037.7,030.8,22.3,0000.0,0003.21,0007.95,0002.56
2023-08-13 08:14:00,SystemResetWarning,0830.7,5.01,000.00,029.4,025.7,000.0,037.7,030.6,22.2,0000.0,0003.21,0007.88,0002.55
2023-08-13 08:15:00,SystemResetWarning,0830.7,4.99,000.00,029.3,025.9,000.0,037.7,030.6,22.1,0000.0,0003.21,0008.09,0002.54
2023-08-13 08:16:00,SystemResetWarning,0830.7,5.00,000.00,029.3,026.3,000.0,037.8,030.7,22.0,0000.0,0003.23,0008.23,0002.52
2023-08-13 08:17:00,SystemResetWarning,0830.6,5.01,000.00,029.3,026.6,000.0,037.8,030.8,21.9,0000.0,0003.25,0008.52,0002.52
2023-08-13 08:18:00,SystemResetWarning,0830.7,5.00,000.00,029.3,027.0,000.0,037.8,030.8,21.7,0000.0,0003.27,0008.50,0002.52
2023-08-13 08:19:00,SystemResetWarning,0830.7,5.00,000.00,029.3,027.2,000.0,037.8,030.9,22.1,0000.0,0003.24,0008.47,0002.51
2023-08-13 08:20:00,SystemResetWarning,0830.7,5.00,000.00,029.3,027.5,000.0,037.8,030.9,22.1,0000.0,0003.21,0008.94,0002.52
2023-08-13 08:21:00,SystemResetWarning,0830.6,5.00,000.00,029.3,027.7,000.0,037.8,031.0,21.8,0000.0,0003.20,0009.32,0002.52
2023-08-13 08:22:00,SystemResetWarning,0830.7,5.00,000.00,029.3,027.9,000.0,037.9,031.0,21.8,0000.0,0003.20,0009.44,0002.50
2023-08-13 08:23:00,SystemResetWarning,0830.7,4.98,000.00,029.4,028.0,000.0,037.9,031.1,21.7,0000.0,0003.22,0009.10,0002.50
2023-08-13 08:24:00,SystemResetWarning,0830.6,5.00,000.00,029.4,028.1,000.0,037.9,031.1,21.6,0000.0,0003.22,0008.94,0002.48
2023-08-13 08:25:00,SystemResetWarning,0830.7,5.00,000.00,029.5,028.3,000.0,037.9,031.2,21.4,0000.0,0003.21,0008.66,0002.49
2023-08-13 08:26:00,SystemResetWarning,0830.6,5.01,000.00,029.5,028.3,000.0,038.0,031.2,21.3,0000.0,0003.19,0008.48,0002.49
2023-08-13 08:27:00,SystemResetWarning,0830.6,4.99,000.00,029.5,026.9,000.0,037.8,031.0,21.3,0000.0,0003.17,0008.35,0002.49
2023-08-13 08:28:00,SystemResetWarning,0830.5,5.01,000.00,029.4,025.6,000.0,037.7,030.8,21.2,0000.0,0003.18,0008.12,0002.50
2023-08-13 08:29:00,SystemResetWarning,0830.6,5.01,000.00,029.3,025.6,000.0,037.7,030.6,21.3,0000.0,0003.17,0008.24,0002.49
2023-08-13 08:30:00,SystemResetWarning,0830.6,4.99,000.00,029.3,025.9,000.0,037.7,030.5,21.5,0000.0,0003.20,0008.07,0002.50
2023-08-13 08:31:00,SystemResetWarning,0830.6,5.00,000.00,029.2,026.3,000.0,037.8,030.6,21.5,0000.0,0003.19,0006.99,0002.48
2023-08-13 08:32:00,SystemResetWarning,0830.6,5.00,000.00,029.2,026.6,000.0,037.8,030.7,21.5,0000.0,0003.18,0006.21,0002.48
2023-08-13 08:33:00,SystemResetWarning,0830.6,5.00,000.00,029.2,026.9,000.0,037.8,030.8,21.5,0000.0,0003.18,0006.01,0002.49
2023-08-13 08:34:00,SystemResetWarning,0830.6,5.00,000.00,029.3,027.2,000.0,037.8,030.9,21.5,0000.0,0003.18,0006.26,0002.49
2023-08-13 08:35:00,SystemResetWarning,0830.6,5.00,000.00,029.3,027.5,000.0,037.8,030.9,21.4,0000.0,0003.21,0006.60,0002.50
2023-08-13 08:36:00,SystemResetWarning,0830.7,5.00,000.00,029.3,027.7,000.0,037.8,031.0,21.4,0000.0,0003.23,0007.38,0002.51
2023-08-13 08:37:00,SystemResetWarning,0830.7,5.00,000.00,029.3,027.9,000.0,037.9,031.0,21.4,0000.0,0003.27,0007.58,0002.52
2023-08-13 08:38:00,SystemResetWarning,0830.6,5.00,000.00,029.4,028.0,000.0,037.9,031.1,21.3,0000.0,0003.30,0007.88,0002.52
2023-08-13 08:39:00,SystemResetWarning,0830.7,5.00,000.00,029.4,028.1,000.0,037.9,031.1,21.3,0000.0,0003.30,0007.94,0002.52
2023-08-13 08:40:00,SystemResetWarning,0830.7,4.99,000.00,029.4,028.2,000.0,037.9,031.2,21.3,0000.0,0003.29,0007.83,0002.53
2023-08-13 08:41:00,SystemResetWarning,0830.6,5.00,000.00,029.5,028.3,000.0,037.9,031.2,21.3,0000.0,0003.28,0008.21,0002.54
2023-08-13 08:42:00,SystemResetWarning,0830.6,5.01,000.00,029.5,027.8,000.0,037.9,031.1,21.2,0000.0,0003.28,0008.12,0002.54
2023-08-13 08:43:00,SystemResetWarning,0830.6,4.98,000.00,029.5,026.1,000.0,037.8,030.8,21.2,0000.0,0003.25,0008.04,0002.53
2023-08-13 08:44:00,SystemResetWarning,0830.6,5.02,000.00,029.4,025.6,000.0,037.7,030.7,21.6,0000.0,0003.24,0007.93,0002.50
2023-08-13 08:45:00,SystemResetWarning,0830.6,5.00,000.00,029.3,025.8,000.0,037.7,030.6,21.8,0000.0,0003.23,0007.79,0002.49
2023-08-13 08:46:00,SystemResetWarning,0830.6,5.00,000.00,029.2,026.1,000.0,037.7,030.6,21.6,0000.0,0003.24,0007.71,0002.47
2023-08-13 08:47:00,SystemResetWarning,0830.6,5.01,000.00,029.2,026.5,000.0,037.8,030.7,21.5,0000.0,0003.24,0007.32,0002.46
2023-08-13 08:48:00,SystemResetWarning,0830.6,5.00,000.00,029.2,026.8,000.0,037.8,030.8,21.6,0000.0,0003.19,0006.96,0002.47
2023-08-13 08:49:00,SystemResetWarning,0830.6,5.00,000.00,029.2,027.1,000.0,037.8,030.8,21.4,0000.0,0003.15,0006.29,0002.46
2023-08-13 08:50:00,SystemResetWarning,0830.6,4.99,000.00,029.3,027.4,000.0,037.8,030.9,21.3,0000.0,0003.13,0006.34,0002.43
2023-08-13 08:51:00,SystemResetWarning,0830.6,5.00,000.00,029.3,027.6,000.0,037.8,031.0,21.4,0000.0,0003.11,0006.20,0002.42
2023-08-13 08:52:00,SystemResetWarning,0830.5,5.00,000.00,029.3,027.8,000.0,037.8,031.0,21.1,0000.0,0003.08,0005.47,0002.39
2023-08-13 08:53:00,SystemResetWarning,0830.6,5.01,000.00,029.3,027.9,000.0,037.8,031.0,20.9,0000.0,0003.11,0005.75,0002.38
2023-08-13 08:54:00,SystemResetWarning,0830.6,5.01,000.00,029.4,028.1,000.0,037.9,031.1,21.0,0000.0,0003.14,0006.01,0002.37
2023-08-13 08:55:00,SystemResetWarning,0830.6,5.00,000.00,029.4,028.2,000.0,037.9,031.1,21.0,0000.0,0003.13,0006.23,0002.37
2023-08-13 08:56:00,SystemResetWarning,0830.6,5.01,000.00,029.4,028.2,000.0,037.9,031.2,21.0,0000.0,0003.11,0006.53,0002.36
2023-08-13 08:57:00,SystemResetWarning,0830.6,4.99,000.00,029.5,028.3,000.0,037.9,031.2,21.0,0000.0,0003.04,0006.39,0002.34
2023-08-13 08:58:00,SystemResetWarning,0830.6,5.00,000.00,029.5,028.4,000.0,038.0,031.2,20.8,0000.0,0003.01,0006.33,0002.33
2023-08-13 08:59:00,SystemResetWarning,0830.6,4.99,000.00,029.5,028.0,000.0,037.9,031.2,20.8,0000.0,0003.03,0006.57,0002.30
